Regional Weather Roundup
Issued by NWS Charleston, WV

Home | Current Version | Previous Version | Graphics & Text | Print | Product List | Glossary On
Versions: 1 2 3 4 5 6 7 8 9 10 11 12 13 14 15 16 17 18 19 20 21 22 23 24 25 26 27 28 29 30 31 32 33 34 35 36 37 38 39 40 41 42 43 44 45 46 47 48 49 50
000
ASUS41 KRLX 092110
RWRRLX
West Virginia Regional Weather Roundup
National Weather Service Charleston WV
400 PM EST FRI DEC 09 2016

Note: "fair" indicates few or no clouds below 12,000 feet with no
significant weather and/or obstructions to visibility.

WVZ003-092200-
Northern Panhandle of West Virginia

CITY           SKY/WX    TMP DP  RH WIND       PRES   REMARKS
WHEELING       LGT SNOW  25  19  78 W14G21    30.39R
$$

WVZ009-092200-
Northwest West Virginia

CITY           SKY/WX    TMP DP  RH WIND       PRES   REMARKS
PARKERSBURG    CLOUDY    29  13  51 SW9       30.48S
$$

WVZ006-092200-
Western West Virginia

CITY           SKY/WX    TMP DP  RH WIND       PRES   REMARKS
HUNTINGTON     CLOUDY    26  13  57 W5        30.51S
$$

WVZ015-092200-
West Central West Virginia

CITY           SKY/WX    TMP DP  RH WIND       PRES   REMARKS
CHARLESTON     FLURRIES  26  15  63 W7        30.49R
$$

WVZ022-031-092200-
North Central West Virginia

CITY           SKY/WX    TMP DP  RH WIND       PRES   REMARKS
CLARKSBURG     CLOUDY    27  15  61 W8        30.42R
MORGANTOWN     CLOUDY    27  14  58 W9        30.39R
$$

WVZ025-035-042-045-092200-
Southern West Virginia

CITY           SKY/WX    TMP DP  RH WIND       PRES   REMARKS
BECKLEY        CLOUDY    21  11  65 NW9       30.37S
LOGAN          CLOUDY    25  14  63 CALM      30.44S
BLUEFIELD      CLOUDY    20   8  60 W10       30.36R WCI   9
LEWISBURG      FLURRIES  21  10  63 N7        30.36R
$$

WVZ047-092200-
Northern Mountains of West Virginia

CITY           SKY/WX    TMP DP  RH WIND       PRES   REMARKS
ELKINS         CLOUDY    22  12  65 VRB5      30.38R
$$

WVZ052-092200-
Eastern Panhandle of West Virginia

CITY           SKY/WX    TMP DP  RH WIND       PRES   REMARKS
MARTINSBURG    MOCLDY    32  16  51 W14       30.35R
PETERSBURG     CLOUDY    30  18  59 W8        30.40R
$$




USA.gov is the U.S. government's official web portal to all federal, state and local government web resources and services.